sat.trackr.live / text

‹ back to catalog

STARLINK-37410

NORAD 68823 · 2026-089X

PAYLOAD ACTIVE UNKNOWN

§ Identity

Operator
Country
US
Launch date
2026-04-23
Launch site
AFWTR
Launch vehicle
Mass (kg)
RCS (m²)

Purposes: comms

External: N2YO · Heavens-Above · Gunter

§ Orbital elements

Epoch: 2026-09-19T00:10:02.704800Z

Period
93.91 min
Inclination
97.2846°
Eccentricity
0.0001603
Mean motion
15.33451953 rev/d
Perigee alt
464.4 km
Apogee alt
466.6 km
Semi-major
6,843.7 km
B*
5.2157e-4
RAAN
107.8432°
Arg perigee
99.2923°
Mean anomaly
260.8501°
Rev number
2,303

§ Raw data

STARLINK-374101 68823U 26089X   26262.00697575  .00016805  00000+0  52157-3 0  99912 68823  97.2846 107.8432 0001603  99.2923 260.8501 15.33451953 23033

JSON: /api/v1/satellites/68823 · /tle

For live sub-satellite position, see the globe view (requires WebGL).

§ Visibility from observer

Set your observer location to see the next 7 days of passes ≥ 10°. The values pass through the URL so the page stays shareable.

No JS? Fill the form by hand. The geolocation button needs JavaScript.